WORLDVIEW 2

Satellite information

Favourite Embed

Satellite Type and Status

PAYLOADIN ORBIT

Key statistics

Satellite WORLDVIEW 2 at a glance.

Uptime

5693

Days in orbit

Revolutions

≈ 14.4

Per day

Orbit

SSO

Sun Synchronous Orbit

Inclination

98.5

Latest

Satellite identification and parameters

Extended collection of information and parameters for WORLDVIEW 2.

Object identification

Identified? True

Debris? False

Object name: WORLDVIEW 2

International designator: 2009-055A

Object number (NORAD): 35946

Object ID (CCSDS): 35946

Country: UNITED STATES OF AMERICA (US)

Current information (Y/N): Y

RCS size: LARGE

Orbital parameters

Period: 100.196 minutes

Inclination: 98.4793 deg

SMA: 7145.946 km

Apoapsis: 770.635 km

Periapsis: 764.987 km

RAAN: 204.0364 deg

Eccentricy: 0.0003952

Argument of periapsis: 7.3676 deg

Mean anomaly: 352.7568 deg

Mean motion: 14.37186499 rev/day

Mean motion (dot): 0.00000167 rev/day2

B* drag term: 0.000070804 1/REarth

Two-line elements (TLE)

Creation date: May 10, 2025, 2:32 a.m.

Reference frame: TEME

Reference center: EARTH

Epoch: May 9, 2025, 9:37 p.m. UTC

TLE line 0: 0 WORLDVIEW 2

TLE line 1: 1 35946U 09055A 25129.90117472 .00000167 00000-0 70804-4 0 9993

TLE line 2: 2 35946 98.4793 204.0364 0003952 7.3676 352.7568 14.37186499817707

Live tracking on map

Real-time ground track for satellite WORLDVIEW 2.

In-orbit conjunctions

There are no conjunctions computed for WORLDVIEW 2, at the moment. Check back to stay up to date, as we update our databases every day.

Go to all conjunctions

Associated space launch

A commercial earth observation satellite owned by DigitalGlobe.

WORLDVIEW 2 was lifted into orbit during the mission ‘Delta II 7920-10C | WorldView-2’, on board a Delta II space rocket.

The launch took place on Oct. 8, 2009, 6:51 p.m. from Space Launch Complex 2W.

For more information about the launch, click the button.

Launch to space Delta II 7920-10C | WorldView-2
Delta II 7920-10C | WorldView-2

Agency: N/A

Status: Launch Successful

Launch date: Oct. 8, 2009, 6:51 p.m. UTC

Rocket: Delta II

Launch pad: Space Launch Complex 2W

Location: Vandenberg SFB, CA, USA

...

Latest news about this satellite

There are no fresh news available about this satellite. Check back as we update our databases every day.


Newsletter sign-up

Weekly statistics, charts and insights to help you stay on top of the space industry.